SENTINEL-3A

Last updated on Thu Sep 24 2026 00:02:58 GMT+0000 (Coordinated Universal Time)

1 41335U 16011A 26266.53863208 .00000052 00000+0 39654-4 0 9999 2 41335 98.6273 332.4989 0001191 106.4316 253.6996 14.26736238552086
UTC large
Height (km)
Speed (km/s)
/
Latitude / Longitude
Inclination (degrees)
Orbital Period (minutes)
Azimuth
Elevation
Range (km)
Doppler Factor

Next 0 passes for location: London (51.5072 / 0.1276)

No passes found over London.
SENTINEL-3A